Regional Weather Roundup
Issued by NWS

Home | Current Version | Previous Version | Graphics & Text | Print | Product List | Glossary On
Versions: 1 2 3 4 5 6 7 8 9 10 11 12 13 14 15 16 17 18 19 20 21 22 23 24 25 26 27 28 29 30 31 32 33 34 35 36 37 38 39 40 41 42 43 44 45 46 47 48 49 50
000
ASUS43 KDTX 221701
RWRMI
MICHIGAN HOURLY REGIONAL WEATHER ROUNDUP
NATIONAL WEATHER SERVICE DETROIT/PONTIAC MI
1200 PM EST MON DEC 22 2014

NOTE: "FAIR" INDICATES FEW OR NO CLOUDS BELOW 12,000 FEET WITH NO
SIGNIFICANT WEATHER AND/OR OBSTRUCTION TO VISIBILITY.

MIZ047>049-052>055-059>063-066>070-074>076-081>083-221800-
SOUTHEAST LOWER MICHIGAN

CITY           SKY/WX    TMP DP  RH WIND       PRES   REMARKS
ADRIAN         PTSUNNY   35  29  78 E13       29.99F WCI  26
ALMA           SUNNY     34  28  80 SE8       30.03F HAZE    WCI  27
ANN ARBOR      MOSUNNY   35  28  75 E8        30.01F WCI  29
BAD AXE        CLOUDY    33  27  79 SE5       30.08F WCI  28
CARO           SUNNY     36  26  69 SE12      30.05F WCI  27
DETROIT CITY   SUNNY     38  29  70 E8        30.06F WCI  32
DETROIT        PTSUNNY   35  29  78 E7        30.05F WCI  29
FLINT          SUNNY     39  26  59 SE9       30.04F WCI  33
GROSSE ILE     MOSUNNY   37  30  75 E7        30.03F WCI  32
HILLSDALE      CLOUDY    34  29  81 SE9       29.95F WCI  27
HOWELL         SUNNY     36  28  72 SE12      30.01F WCI  28

CITY           SKY/WX    TMP DP  RH WIND       PRES   REMARKS
JACKSON        MOSUNNY   34  28  79 E9        29.97F WCI  27
LAMBERTVILLE   PTSUNNY   37  30  75 E10       30.00F WCI  30
LANSING        MOSUNNY   35  26  69 SE14      29.99F WCI  26
LAPEER         FAIR      35  27  72 SE8       30.04F WCI  29
MASON          MOSUNNY   35  27  75 E7        29.98F WCI  29
MONROE         MOSUNNY   36  30  80 E9        30.01F WCI  29
PONTIAC        MOSUNNY   36  27  69 SE10      30.03F WCI  28
PORT HOPE        N/A     33  25  72 SE7       30.07F WCI  27
PORT HURON     MOSUNNY   36  30  80 SE6       30.08F WCI  31
TRI CITIES     SUNNY     36  25  64 E6        30.05F WCI  31
TROY           SUNNY     38  28  67 E6        30.06F WCI  34
SAGINAW HB     SUNNY     36  28  75 SE7       30.05F WCI  30
$$
MIZ043>046-050>051-056>058-064>065-071>073-077>080-221800-
SOUTHWEST LOWER MICHIGAN

CITY           SKY/WX    TMP DP  RH WIND       PRES   REMARKS
BATTLE CREEK   CLOUDY    35  26  69 E7        29.95F WCI  29
BENTON HARBOR  CLOUDY    32  27  81 E12       29.91F HAZE    WCI  23
BIG RAPIDS     SUNNY     33  28  83 SE14      29.97F HAZE    WCI  23
COLDWATER      CLOUDY    34  28  77 MISG      29.95F
FREMONT        PTSUNNY   34  26  72 E10       29.95F WCI  26
HOLLAND        CLOUDY    36  27  69 E14       29.94F WCI  27
GRAND RAPIDS   PTSUNNY   35  27  72 E16       29.95F WCI  25
IONIA          PTSUNNY   35  29  77 E8        29.97F WCI  29
KALAMAZOO      CLOUDY    35  27  72 SE8       29.95F WCI  29
LUDINGTON      MOSUNNY   36  27  70 SE12G17   29.94F WCI  27
MARSHALL       CLOUDY    33  27  80 E7        29.95F WCI  27
MOUNT PLEASANT SUNNY     34  26  73 SE8       30.01F WCI  27
MUSKEGON       CLOUDY    36  26  67 E10       29.94F WCI  28
SOUTH HAVEN    CLOUDY    33  27  76 E8        29.92F WCI  27
$$
MIZ016>042-221800-
NORTHERN LOWER MICHIGAN

CITY           SKY/WX    TMP DP  RH WIND       PRES   REMARKS
ALPENA         CLOUDY    33  26  75 S10       30.08F WCI  25
BEAVER ISLAND  CLOUDY    34  28  78 SE13      29.99F WCI  25
BELLAIRE       MOSUNNY   33  25  73 SE7       30.00F WCI  27
CADILLAC       SUNNY     30  24  77 SE12G17   29.96F WCI  21
CHARLEVOIX     PTSUNNY   33  26  74 SE14      30.02F WCI  23
FRANKFORT      MOSUNNY   36  26  68 SE9       29.95F WCI  29
GAYLORD        CLOUDY    29  24  82 SE12      30.00F WCI  19
GRAYLING       MOSUNNY   31  25  78 SE9       30.01F WCI  23
HARBOR SPRINGS CLOUDY    32  25  73 E8        30.03F WCI  25
HOUGHTON LAKE  SUNNY     30  24  78 SE12      30.02F WCI  20
MANISTEE       SUNNY     36  23  60 SE10G17   29.95F WCI  28
OSCODA         CLOUDY    33  27  80 S7        30.09F WCI  27
PELLSTON       CLOUDY    32  25  75 SE12      30.04F WCI  23
ROGERS CITY    PTSUNNY   33  28  83 S13       30.08F WCI  24
TRAVERSE CITY  PTSUNNY   35  25  66 VRB6      29.98F WCI  30
$$
MIZ007>008-015-221800-
EASTERN UPPER MICHIGAN

CITY           SKY/WX    TMP DP  RH WIND       PRES   REMARKS
KINROSS        CLOUDY    34  28  80 S13       30.04F WCI  25
MACKINAC ISLAN CLOUDY    32  26  78 SE13G18   30.03F WCI  22
NEWBERRY       CLOUDY    31  27  86 SE14G20   29.99F WCI  21
S. S. MARIE    CLOUDY    33  27  78 SE10G22   30.03F WCI  25
MUNISING         N/A     36  31  82 S7        29.93F WCI  30
$$
MIZ004>006-011>014-085-221800-
CENTRAL UPPER MICHIGAN

CITY           SKY/WX    TMP DP  RH WIND       PRES   REMARKS
MANISTIQUE     CLOUDY    34  31  88 SE9G18    29.97F WCI  27
ESCANABA       CLOUDY    36  30  80 SE8       29.93F WCI  29
MENOMINEE      CLOUDY    36  32  87 S12       29.89F WCI  27
SAWYER-GWINN   FOG       32  32 100 S15       29.88F VSB 1   WCI  22
$$
MIZ001>003-009>011-084-221800-
WESTERN UPPER MICHIGAN

CITY           SKY/WX    TMP DP  RH WIND       PRES   REMARKS
IRON MOUNTAIN  CLOUDY    34  32  92 SE9       29.86F FOG     WCI  27
HOUGHTON       CLOUDY    34  32  92 SE9       29.82F FOG     WCI  27
COPPER HARBOR    N/A     37  33  85 VRB5      29.85F WCI  33
IRONWOOD       CLOUDY    36  32  87 SE8       29.73F WCI  29
$$

ABBREVIATIONS USED IN REMARKS
   TC - TEMPERATURE IN CELSIUS
  WCI - WIND CHILL INDEX
   HX - HEAT INDEX
  VSB - VISIBILITY



USA.gov is the U.S. government's official web portal to all federal, state and local government web resources and services.